Location: Serpentine
(32.3617°S, 115.9768°E)
Time: 11:03:27
(UTC+08:00)

N. Korean satellite - Visible Passes

Search period start: 29 March 2020 00:00
Search period end: 08 April 2020 00:00
Orbit: 455 x 506 km, 97.2° (Epoch: 28 March)

Date Brightness Start Highest point End Pass type
(mag) Time Alt. Az. Time Alt. Az. Time Alt. Az.
29 Mar 6.4 05:25:21 10° N 05:28:48 73° W 05:32:20 10° SSW visible
30 Mar 7.8 04:59:57 10° NNE 05:03:15 43° ESE 05:06:38 10° S visible
31 Mar 9.3 04:35:15 10° ENE 04:37:48 19° ESE 04:40:24 10° SSE visible
01 Apr 6.9 05:42:04 10° N 05:45:21 39° W 05:48:43 10° SSW visible
01 Apr 9.8 18:46:39 10° SSW 18:49:18 18° WSW 18:51:55 10° WNW visible
02 Apr 6.6 05:16:16 10° NNE 05:19:45 81° ESE 05:23:20 10° S visible
03 Apr 8.4 04:51:06 10° NE 04:54:14 32° ESE 04:57:29 10° S visible
04 Apr 9.7 04:26:45 10° ENE 04:28:49 15° ESE 04:30:55 10° SE visible
04 Apr 7.7 05:59:07 10° NNW 06:01:57 23° W 06:04:50 10° SW visible
04 Apr 10.2 19:04:30 10° SW 19:05:42 11° WSW 19:06:54 10° W visible
05 Apr 6.6 05:32:50 10° N 05:36:17 54° W 05:39:50 10° SSW visible
05 Apr 9.4 18:37:17 10° SSW 18:40:20 23° WSW 18:43:21 10° NW visible
06 Apr 7.1 05:07:15 10° NNE 05:10:42 58° ESE 05:14:16 10° S visible
07 Apr 8.9 04:42:17 10° NE 04:45:13 25° ESE 04:48:13 10° SSE visible
